Year,Month,Day,Hour,Minute,Value (Times are PST for temperature in C)
2016,07,16,00,00,16.90
2016,07,16,00,01,16.90
2016,07,16,00,02,16.90
2016,07,16,00,03,16.80
2016,07,16,00,04,16.80
2016,07,16,00,05,16.80
2016,07,16,00,06,16.80
2016,07,16,00,07,16.80
2016,07,16,00,08,16.80
2016,07,16,00,09,16.80
2016,07,16,00,10,16.80
2016,07,16,00,11,16.80
2016,07,16,00,12,16.80
2016,07,16,00,13,16.80
2016,07,16,00,14,16.80
2016,07,16,00,15,16.80
2016,07,16,00,16,16.80
2016,07,16,00,17,16.70
2016,07,16,00,18,16.70
2016,07,16,00,19,16.70
2016,07,16,00,20,16.70
2016,07,16,00,21,16.70
2016,07,16,00,22,16.70
2016,07,16,00,23,16.70
2016,07,16,00,24,16.70
2016,07,16,00,25,16.70
2016,07,16,00,26,16.70
2016,07,16,00,27,16.70
2016,07,16,00,28,16.70
2016,07,16,00,29,16.60
2016,07,16,00,30,16.60
2016,07,16,00,31,16.60
2016,07,16,00,32,16.60
2016,07,16,00,33,16.60
2016,07,16,00,34,16.60
2016,07,16,00,35,16.60
2016,07,16,00,36,16.60
2016,07,16,00,37,16.60
2016,07,16,00,38,16.60
2016,07,16,00,39,16.60
2016,07,16,00,40,16.60
2016,07,16,00,41,16.60
2016,07,16,00,42,16.60
2016,07,16,00,43,16.60
2016,07,16,00,44,16.60
2016,07,16,00,45,16.50
2016,07,16,00,46,16.50
2016,07,16,00,47,16.40
2016,07,16,00,48,16.40
2016,07,16,00,49,16.30
2016,07,16,00,50,16.30
2016,07,16,00,51,16.30
2016,07,16,00,52,16.20
2016,07,16,00,53,16.20
2016,07,16,00,54,16.20
2016,07,16,00,55,16.20
2016,07,16,00,56,16.10
2016,07,16,00,57,16.10
2016,07,16,00,58,16.10
2016,07,16,00,59,16.00
2016,07,16,01,00,16.00
2016,07,16,01,01,15.90
2016,07,16,01,02,15.90
2016,07,16,01,03,15.90
2016,07,16,01,04,15.80
2016,07,16,01,05,15.80
2016,07,16,01,06,15.70
2016,07,16,01,07,15.70
2016,07,16,01,08,15.60
2016,07,16,01,09,15.60
2016,07,16,01,10,15.50
2016,07,16,01,11,15.50
2016,07,16,01,12,15.50
2016,07,16,01,13,15.40
2016,07,16,01,14,15.40
2016,07,16,01,15,15.40
2016,07,16,01,16,15.40
2016,07,16,01,17,15.40
2016,07,16,01,18,15.40
2016,07,16,01,19,15.40
2016,07,16,01,20,15.40
2016,07,16,01,21,15.40
2016,07,16,01,22,15.40
2016,07,16,01,23,15.40
2016,07,16,01,24,15.40
2016,07,16,01,25,15.40
2016,07,16,01,26,15.40
2016,07,16,01,27,15.40
2016,07,16,01,28,15.40
2016,07,16,01,29,15.40
2016,07,16,01,30,15.40
2016,07,16,01,31,15.40
2016,07,16,01,32,15.30
2016,07,16,01,33,15.30
2016,07,16,01,34,15.30
2016,07,16,01,35,15.30
2016,07,16,01,36,15.30
2016,07,16,01,37,15.30
2016,07,16,01,38,15.30
2016,07,16,01,39,15.30
2016,07,16,01,40,15.30
2016,07,16,01,41,15.20
2016,07,16,01,42,15.20
2016,07,16,01,43,15.20
2016,07,16,01,44,15.20
2016,07,16,01,45,15.20
2016,07,16,01,46,15.20
2016,07,16,01,47,15.20
2016,07,16,01,48,15.20
2016,07,16,01,49,15.20
2016,07,16,01,50,15.20
2016,07,16,01,51,15.20
2016,07,16,01,52,15.20
2016,07,16,01,53,15.20
2016,07,16,01,54,15.20
2016,07,16,01,55,15.20
2016,07,16,01,56,15.20
2016,07,16,01,57,15.20
2016,07,16,01,58,15.20
2016,07,16,01,59,15.20
2016,07,16,02,00,15.10
2016,07,16,02,01,15.10
2016,07,16,02,02,15.10
2016,07,16,02,03,15.10
2016,07,16,02,04,15.10
2016,07,16,02,05,15.10
2016,07,16,02,06,15.10
2016,07,16,02,07,15.10
2016,07,16,02,08,15.10
2016,07,16,02,09,15.10
2016,07,16,02,10,15.20
2016,07,16,02,11,15.20
2016,07,16,02,12,15.20
2016,07,16,02,13,15.20
2016,07,16,02,14,15.20
2016,07,16,02,15,15.20
2016,07,16,02,16,15.20
2016,07,16,02,17,15.20
2016,07,16,02,18,15.20
2016,07,16,02,19,15.20
2016,07,16,02,20,15.20
2016,07,16,02,21,15.20
2016,07,16,02,22,15.20
2016,07,16,02,23,15.20
2016,07,16,02,24,15.20
2016,07,16,02,25,15.20
2016,07,16,02,26,15.30
2016,07,16,02,27,15.30
2016,07,16,02,28,15.30
2016,07,16,02,29,15.30
2016,07,16,02,30,15.30
2016,07,16,02,31,15.30
2016,07,16,02,32,15.30
2016,07,16,02,33,15.30
2016,07,16,02,34,15.30
2016,07,16,02,35,15.30
2016,07,16,02,36,15.30
2016,07,16,02,37,15.30
2016,07,16,02,38,15.30
2016,07,16,02,39,15.30
2016,07,16,02,40,15.30
2016,07,16,02,41,15.40
2016,07,16,02,42,15.40
2016,07,16,02,43,15.30
2016,07,16,02,44,15.40
2016,07,16,02,45,15.30
2016,07,16,02,46,15.40
2016,07,16,02,47,15.30
2016,07,16,02,48,15.30
2016,07,16,02,49,15.30
2016,07,16,02,50,15.30
2016,07,16,02,51,15.30
2016,07,16,02,52,15.30
2016,07,16,02,53,15.30
2016,07,16,02,54,15.30
2016,07,16,02,55,15.30
2016,07,16,02,56,15.30
2016,07,16,02,57,15.30
2016,07,16,02,58,15.30
2016,07,16,02,59,15.30
2016,07,16,03,00,15.30
2016,07,16,03,01,15.30
2016,07,16,03,02,15.30
2016,07,16,03,03,15.30
2016,07,16,03,04,15.30
2016,07,16,03,05,15.30
2016,07,16,03,06,15.30
2016,07,16,03,07,15.30
2016,07,16,03,08,15.30
2016,07,16,03,09,15.30
2016,07,16,03,10,15.30
2016,07,16,03,11,15.30
2016,07,16,03,12,15.30
2016,07,16,03,13,15.30
2016,07,16,03,14,15.30
2016,07,16,03,15,15.20
2016,07,16,03,16,15.20
2016,07,16,03,17,15.20
2016,07,16,03,18,15.20
2016,07,16,03,19,15.20
2016,07,16,03,20,15.20
2016,07,16,03,21,15.20
2016,07,16,03,22,15.20
2016,07,16,03,23,15.20
2016,07,16,03,24,15.10
2016,07,16,03,25,15.10
2016,07,16,03,26,15.10
2016,07,16,03,27,15.10
2016,07,16,03,28,15.10
2016,07,16,03,29,15.10
2016,07,16,03,30,15.10
2016,07,16,03,31,15.10
2016,07,16,03,32,15.10
2016,07,16,03,33,15.10
2016,07,16,03,34,15.10
2016,07,16,03,35,15.10
2016,07,16,03,36,15.10
2016,07,16,03,37,15.10
2016,07,16,03,38,15.10
2016,07,16,03,39,15.10
2016,07,16,03,40,15.10
2016,07,16,03,41,15.10
2016,07,16,03,42,15.10
2016,07,16,03,43,15.10
2016,07,16,03,44,15.10
2016,07,16,03,45,15.10
2016,07,16,03,46,15.10
2016,07,16,03,47,15.10
2016,07,16,03,48,15.10
2016,07,16,03,49,15.10
2016,07,16,03,50,15.10
2016,07,16,03,51,15.10
2016,07,16,03,52,15.10
2016,07,16,03,53,15.10
2016,07,16,03,54,15.10
2016,07,16,03,55,15.10
2016,07,16,03,56,15.10
2016,07,16,03,57,15.10
2016,07,16,03,58,15.10
2016,07,16,03,59,15.10
2016,07,16,04,00,15.10
2016,07,16,04,01,15.10
2016,07,16,04,02,15.10
2016,07,16,04,03,15.10
2016,07,16,04,04,15.00
2016,07,16,04,05,15.00
2016,07,16,04,06,15.00
2016,07,16,04,07,15.00
2016,07,16,04,08,15.00
2016,07,16,04,09,14.90
2016,07,16,04,10,14.90
2016,07,16,04,11,14.90
2016,07,16,04,12,14.90
2016,07,16,04,13,14.90
2016,07,16,04,14,14.90
2016,07,16,04,15,14.90
2016,07,16,04,16,14.90
2016,07,16,04,17,14.90
2016,07,16,04,18,14.90
2016,07,16,04,19,14.90
2016,07,16,04,20,14.90
2016,07,16,04,21,14.90
2016,07,16,04,22,14.90
2016,07,16,04,23,14.90
2016,07,16,04,24,14.90
2016,07,16,04,25,14.90
2016,07,16,04,26,14.90
2016,07,16,04,27,14.90
2016,07,16,04,28,14.90
2016,07,16,04,29,14.90
2016,07,16,04,30,14.90
2016,07,16,04,31,14.90
2016,07,16,04,32,14.90
2016,07,16,04,33,14.90
2016,07,16,04,34,14.90
2016,07,16,04,35,14.90
2016,07,16,04,36,14.90
2016,07,16,04,37,14.90
2016,07,16,04,38,14.90
2016,07,16,04,39,14.90
2016,07,16,04,40,14.90
2016,07,16,04,41,14.90
2016,07,16,04,42,14.90
2016,07,16,04,43,14.90
2016,07,16,04,44,14.90
2016,07,16,04,45,14.90
2016,07,16,04,46,14.90
2016,07,16,04,47,14.90
2016,07,16,04,48,14.90
2016,07,16,04,49,14.90
2016,07,16,04,50,15.00
2016,07,16,04,51,15.00
2016,07,16,04,52,15.00
2016,07,16,04,53,15.00
2016,07,16,04,54,15.10
2016,07,16,04,55,15.10
2016,07,16,04,56,15.10
2016,07,16,04,57,15.10
2016,07,16,04,58,15.10
2016,07,16,04,59,15.10
2016,07,16,05,00,15.10
2016,07,16,05,01,15.10
2016,07,16,05,02,15.10
2016,07,16,05,03,15.10
2016,07,16,05,04,15.10
2016,07,16,05,05,15.10
2016,07,16,05,06,15.10
2016,07,16,05,07,15.10
2016,07,16,05,08,15.10
2016,07,16,05,09,15.10
2016,07,16,05,10,15.10
2016,07,16,05,11,15.10
2016,07,16,05,12,15.10
2016,07,16,05,13,15.00
2016,07,16,05,14,15.00
2016,07,16,05,15,15.00
2016,07,16,05,16,15.00
2016,07,16,05,17,15.00
2016,07,16,05,18,15.00
2016,07,16,05,19,15.00
2016,07,16,05,20,15.00
2016,07,16,05,21,15.00
2016,07,16,05,22,15.00
2016,07,16,05,23,15.00
2016,07,16,05,24,15.00
2016,07,16,05,25,15.00
2016,07,16,05,26,15.00
2016,07,16,05,27,14.90
2016,07,16,05,28,14.90
2016,07,16,05,29,14.90
2016,07,16,05,30,14.90
2016,07,16,05,31,14.90
2016,07,16,05,32,14.90
2016,07,16,05,33,14.90
2016,07,16,05,34,14.90
2016,07,16,05,35,14.90
2016,07,16,05,36,14.90
2016,07,16,05,37,14.90
2016,07,16,05,38,14.90
2016,07,16,05,39,14.90
2016,07,16,05,40,14.90
2016,07,16,05,41,14.90
2016,07,16,05,42,14.90
2016,07,16,05,43,14.90
2016,07,16,05,44,14.90
2016,07,16,05,45,14.90
2016,07,16,05,46,14.90
2016,07,16,05,47,14.90
2016,07,16,05,48,14.90
2016,07,16,05,49,14.90
2016,07,16,05,50,14.90
2016,07,16,05,51,15.00
2016,07,16,05,52,15.00
2016,07,16,05,53,15.00
2016,07,16,05,54,15.10
2016,07,16,05,55,15.10
2016,07,16,05,56,15.10
2016,07,16,05,57,15.10
2016,07,16,05,58,15.10
2016,07,16,05,59,15.20
2016,07,16,06,00,15.20
2016,07,16,06,01,15.20
2016,07,16,06,02,15.20
2016,07,16,06,03,15.20
2016,07,16,06,04,15.20
2016,07,16,06,05,15.20
2016,07,16,06,06,15.20
2016,07,16,06,07,15.20
2016,07,16,06,08,15.20
2016,07,16,06,09,15.20
2016,07,16,06,10,15.20
2016,07,16,06,11,15.20
2016,07,16,06,12,15.30
2016,07,16,06,13,15.30
2016,07,16,06,14,15.30
2016,07,16,06,15,15.30
2016,07,16,06,16,15.30
2016,07,16,06,17,15.30
2016,07,16,06,18,15.30
2016,07,16,06,19,15.30
2016,07,16,06,20,15.20
2016,07,16,06,21,15.20
2016,07,16,06,22,15.20
2016,07,16,06,23,15.20
2016,07,16,06,24,15.20
2016,07,16,06,25,15.20
2016,07,16,06,26,15.20
2016,07,16,06,27,15.20
2016,07,16,06,28,15.20
2016,07,16,06,29,15.20
2016,07,16,06,30,15.20
2016,07,16,06,31,15.20
2016,07,16,06,32,15.20
2016,07,16,06,33,15.20
2016,07,16,06,34,15.20
2016,07,16,06,35,15.10
2016,07,16,06,36,15.10
2016,07,16,06,37,15.10
2016,07,16,06,38,15.10
2016,07,16,06,39,15.10
2016,07,16,06,40,15.10
2016,07,16,06,41,15.10
2016,07,16,06,42,15.10
2016,07,16,06,43,15.10
2016,07,16,06,44,15.10
2016,07,16,06,45,15.10
2016,07,16,06,46,15.10
2016,07,16,06,47,15.10
2016,07,16,06,48,15.10
2016,07,16,06,49,15.10
2016,07,16,06,50,15.20
2016,07,16,06,51,15.20
2016,07,16,06,52,15.20
2016,07,16,06,53,15.20
2016,07,16,06,54,15.20
2016,07,16,06,55,15.20
2016,07,16,06,56,15.30
2016,07,16,06,57,15.30
2016,07,16,06,58,15.30
2016,07,16,06,59,15.30
2016,07,16,07,00,15.30
2016,07,16,07,01,15.30
2016,07,16,07,02,15.30
2016,07,16,07,03,15.30
2016,07,16,07,04,15.30
2016,07,16,07,05,15.40
2016,07,16,07,06,15.40
2016,07,16,07,07,15.40
2016,07,16,07,08,15.40
2016,07,16,07,09,15.40
2016,07,16,07,10,15.40
2016,07,16,07,11,15.50
2016,07,16,07,12,15.50
2016,07,16,07,13,15.50
2016,07,16,07,14,15.50
2016,07,16,07,15,15.50
2016,07,16,07,16,15.60
2016,07,16,07,17,15.60
2016,07,16,07,18,15.60
2016,07,16,07,19,15.60
2016,07,16,07,20,15.60
2016,07,16,07,21,15.60
2016,07,16,07,22,15.60
2016,07,16,07,23,15.70
2016,07,16,07,24,15.70
2016,07,16,07,25,15.70
2016,07,16,07,26,15.70
2016,07,16,07,27,15.70
2016,07,16,07,28,15.70
2016,07,16,07,29,15.70
2016,07,16,07,30,15.70
2016,07,16,07,31,15.70
2016,07,16,07,32,15.80
2016,07,16,07,33,15.80
2016,07,16,07,34,15.80
2016,07,16,07,35,15.80
2016,07,16,07,36,15.80
2016,07,16,07,37,15.90
2016,07,16,07,38,15.90
2016,07,16,07,39,16.00
2016,07,16,07,40,16.00
2016,07,16,07,41,16.00
2016,07,16,07,42,16.10
2016,07,16,07,43,16.10
2016,07,16,07,44,16.10
2016,07,16,07,45,16.20
2016,07,16,07,46,16.20
2016,07,16,07,47,16.20
2016,07,16,07,48,16.20
2016,07,16,07,49,16.30
2016,07,16,07,50,16.30
2016,07,16,07,51,16.30
2016,07,16,07,52,16.30
2016,07,16,07,53,16.40
2016,07,16,07,54,16.40
2016,07,16,07,55,16.40
2016,07,16,07,56,16.50
2016,07,16,07,57,16.50
2016,07,16,07,58,16.60
2016,07,16,07,59,16.60
2016,07,16,08,00,16.60
2016,07,16,08,01,16.60
2016,07,16,08,02,16.60
2016,07,16,08,03,16.60
2016,07,16,08,04,16.70
2016,07,16,08,05,16.70
2016,07,16,08,06,16.70
2016,07,16,08,07,16.70
2016,07,16,08,08,16.70
2016,07,16,08,09,16.80
2016,07,16,08,10,16.80
2016,07,16,08,11,16.80
2016,07,16,08,12,16.80
2016,07,16,08,13,16.80
2016,07,16,08,14,16.80
2016,07,16,08,15,16.80
2016,07,16,08,16,16.80
2016,07,16,08,17,16.90
2016,07,16,08,18,16.90
2016,07,16,08,19,16.90
2016,07,16,08,20,17.00
2016,07,16,08,21,17.00
2016,07,16,08,22,17.00
2016,07,16,08,23,17.00
2016,07,16,08,24,17.00
2016,07,16,08,25,16.90
2016,07,16,08,26,16.90
2016,07,16,08,27,16.90
2016,07,16,08,28,17.00
2016,07,16,08,29,17.00
2016,07,16,08,30,17.00
2016,07,16,08,31,17.10
2016,07,16,08,32,17.10
2016,07,16,08,33,17.10
2016,07,16,08,34,17.20
2016,07,16,08,35,17.20
2016,07,16,08,36,17.20
2016,07,16,08,37,17.20
2016,07,16,08,38,17.20
2016,07,16,08,39,17.20
2016,07,16,08,40,17.20
2016,07,16,08,41,17.30
2016,07,16,08,42,17.30
2016,07,16,08,43,17.30
2016,07,16,08,44,17.30
2016,07,16,08,45,17.30
2016,07,16,08,46,17.30
2016,07,16,08,47,17.30
2016,07,16,08,48,17.30
2016,07,16,08,49,17.30
2016,07,16,08,50,17.30
2016,07,16,08,51,17.30
2016,07,16,08,52,17.30
2016,07,16,08,53,17.30
2016,07,16,08,54,17.30
2016,07,16,08,55,17.40
2016,07,16,08,56,17.40
2016,07,16,08,57,17.40
2016,07,16,08,58,17.40
2016,07,16,08,59,17.40
2016,07,16,09,00,17.50
2016,07,16,09,01,17.50
2016,07,16,09,02,17.60
2016,07,16,09,03,17.60
2016,07,16,09,04,17.60
2016,07,16,09,05,17.60
2016,07,16,09,06,17.60
2016,07,16,09,07,17.60
2016,07,16,09,08,17.70
2016,07,16,09,09,17.80
2016,07,16,09,10,17.80
2016,07,16,09,11,17.80
2016,07,16,09,12,17.80
2016,07,16,09,13,17.80
2016,07,16,09,14,17.80
2016,07,16,09,15,17.80
2016,07,16,09,16,17.80
2016,07,16,09,17,17.80
2016,07,16,09,18,17.90
2016,07,16,09,19,17.90
2016,07,16,09,20,17.90
2016,07,16,09,21,17.90
2016,07,16,09,22,18.00
2016,07,16,09,23,18.00
2016,07,16,09,24,18.00
2016,07,16,09,25,18.10
2016,07,16,09,26,18.10
2016,07,16,09,27,18.10
2016,07,16,09,28,18.10
2016,07,16,09,29,18.10
2016,07,16,09,30,18.10
2016,07,16,09,31,18.10
2016,07,16,09,32,18.10
2016,07,16,09,33,18.10
2016,07,16,09,34,18.10
2016,07,16,09,35,18.10
2016,07,16,09,36,18.10
2016,07,16,09,37,18.10
2016,07,16,09,38,18.10
2016,07,16,09,39,18.10
2016,07,16,09,40,18.10
2016,07,16,09,41,18.10
2016,07,16,09,42,18.10
2016,07,16,09,43,18.10
2016,07,16,09,44,18.20
2016,07,16,09,45,18.20
2016,07,16,09,46,18.20
2016,07,16,09,47,18.20
2016,07,16,09,48,18.30
2016,07,16,09,49,18.30
2016,07,16,09,50,18.30
2016,07,16,09,51,18.30
2016,07,16,09,52,18.30
2016,07,16,09,53,18.40
2016,07,16,09,54,18.40
2016,07,16,09,55,18.40
2016,07,16,09,56,18.50
2016,07,16,09,57,18.50
2016,07,16,09,58,18.40
2016,07,16,09,59,18.40
2016,07,16,10,00,18.30
2016,07,16,10,01,18.30
2016,07,16,10,02,18.30
2016,07,16,10,03,18.30
2016,07,16,10,04,18.30
2016,07,16,10,05,18.30
2016,07,16,10,06,18.30
2016,07,16,10,07,18.30
2016,07,16,10,08,18.30
2016,07,16,10,09,18.40
2016,07,16,10,10,18.40
2016,07,16,10,11,18.40
2016,07,16,10,12,18.40
2016,07,16,10,13,18.40
2016,07,16,10,14,18.40
2016,07,16,10,15,18.40
2016,07,16,10,16,18.40
2016,07,16,10,17,18.40
2016,07,16,10,18,18.40
2016,07,16,10,19,18.40
2016,07,16,10,20,18.40
2016,07,16,10,21,18.50
2016,07,16,10,22,18.50
2016,07,16,10,23,18.60
2016,07,16,10,24,18.60
2016,07,16,10,25,18.60
2016,07,16,10,26,18.70
2016,07,16,10,27,18.70
2016,07,16,10,28,18.70
2016,07,16,10,29,18.60
2016,07,16,10,30,18.70
2016,07,16,10,31,18.70
2016,07,16,10,32,18.60
2016,07,16,10,33,18.60
2016,07,16,10,34,18.70
2016,07,16,10,35,18.70
2016,07,16,10,36,18.70
2016,07,16,10,37,18.70
2016,07,16,10,38,18.70
2016,07,16,10,39,18.80
2016,07,16,10,40,18.80
2016,07,16,10,41,18.80
2016,07,16,10,42,18.80
2016,07,16,10,43,18.80
2016,07,16,10,44,18.70
2016,07,16,10,45,18.70
2016,07,16,10,46,18.70
2016,07,16,10,47,18.70
2016,07,16,10,48,18.70
2016,07,16,10,49,18.70
2016,07,16,10,50,18.70
2016,07,16,10,51,18.70
2016,07,16,10,52,18.70
2016,07,16,10,53,18.60
2016,07,16,10,54,18.50
2016,07,16,10,55,18.50
2016,07,16,10,56,18.50
2016,07,16,10,57,18.50
2016,07,16,10,58,18.50
2016,07,16,10,59,18.50
2016,07,16,11,00,18.50
2016,07,16,11,01,18.40
2016,07,16,11,02,18.40
2016,07,16,11,03,18.30
2016,07,16,11,04,18.30
2016,07,16,11,05,18.20
2016,07,16,11,06,18.20
2016,07,16,11,07,18.10
2016,07,16,11,08,17.90
2016,07,16,11,09,17.70
2016,07,16,11,10,17.60
2016,07,16,11,11,17.40
2016,07,16,11,12,17.40
2016,07,16,11,13,17.30
2016,07,16,11,14,17.30
2016,07,16,11,15,17.20
2016,07,16,11,16,17.20
2016,07,16,11,17,17.20
2016,07,16,11,18,17.30
2016,07,16,11,19,17.20
2016,07,16,11,20,17.20
2016,07,16,11,21,17.20
2016,07,16,11,22,17.10
2016,07,16,11,23,17.10
2016,07,16,11,24,17.10
2016,07,16,11,25,17.10
2016,07,16,11,26,17.10
2016,07,16,11,27,17.00
2016,07,16,11,28,17.00
2016,07,16,11,29,17.00
2016,07,16,11,30,16.90
2016,07,16,11,31,16.90
2016,07,16,11,32,17.00
2016,07,16,11,33,17.10
2016,07,16,11,34,17.10
2016,07,16,11,35,17.20
2016,07,16,11,36,17.20
2016,07,16,11,37,17.30
2016,07,16,11,38,17.30
2016,07,16,11,39,17.30
2016,07,16,11,40,17.30
2016,07,16,11,41,17.40
2016,07,16,11,42,17.40
2016,07,16,11,43,17.40
2016,07,16,11,44,17.40
2016,07,16,11,45,17.40
2016,07,16,11,46,17.50
2016,07,16,11,47,17.50
2016,07,16,11,48,17.50
2016,07,16,11,49,17.40
2016,07,16,11,50,17.50
2016,07,16,11,51,17.40
2016,07,16,11,52,17.40
2016,07,16,11,53,17.40
2016,07,16,11,54,17.40
2016,07,16,11,55,17.50
2016,07,16,11,56,17.40
2016,07,16,11,57,17.40
2016,07,16,11,58,17.40
2016,07,16,11,59,17.40
2016,07,16,12,00,17.30
2016,07,16,12,01,17.30
2016,07,16,12,02,17.30
2016,07,16,12,03,17.30
2016,07,16,12,04,17.30
2016,07,16,12,05,17.30
2016,07,16,12,06,17.30
2016,07,16,12,07,17.30
2016,07,16,12,08,17.30
2016,07,16,12,09,17.30
2016,07,16,12,10,17.30
2016,07,16,12,11,17.30
2016,07,16,12,12,17.30
2016,07,16,12,13,17.30
2016,07,16,12,14,17.30
2016,07,16,12,15,17.30
2016,07,16,12,16,17.30
2016,07,16,12,17,17.30
2016,07,16,12,18,17.30
2016,07,16,12,19,17.30
2016,07,16,12,20,17.20
2016,07,16,12,21,17.30
2016,07,16,12,22,17.40
2016,07,16,12,23,17.40
2016,07,16,12,24,17.50
2016,07,16,12,25,17.50
2016,07,16,12,26,17.60
2016,07,16,12,27,17.70
2016,07,16,12,28,17.80
2016,07,16,12,29,17.90
2016,07,16,12,30,17.90
2016,07,16,12,31,17.80
2016,07,16,12,32,17.80
2016,07,16,12,33,17.80
2016,07,16,12,34,17.80
2016,07,16,12,35,17.70
2016,07,16,12,36,17.60
2016,07,16,12,37,17.60
2016,07,16,12,38,17.60
2016,07,16,12,39,17.70
2016,07,16,12,40,17.70
2016,07,16,12,41,17.70
2016,07,16,12,42,17.80
2016,07,16,12,43,17.90
2016,07,16,12,44,17.90
2016,07,16,12,45,18.00
2016,07,16,12,46,18.10
2016,07,16,12,47,18.10
2016,07,16,12,48,18.10
2016,07,16,12,49,18.10
2016,07,16,12,50,18.10
2016,07,16,12,51,18.10
2016,07,16,12,52,18.00
2016,07,16,12,53,18.00
2016,07,16,12,54,17.90
2016,07,16,12,55,17.90
2016,07,16,12,56,17.90
2016,07,16,12,57,17.80
2016,07,16,12,58,17.80
2016,07,16,12,59,17.80
2016,07,16,13,00,17.90
2016,07,16,13,01,17.90
2016,07,16,13,02,17.90
2016,07,16,13,03,17.90
2016,07,16,13,04,18.00
2016,07,16,13,05,18.10
2016,07,16,13,06,18.20
2016,07,16,13,07,18.30
2016,07,16,13,08,18.30
2016,07,16,13,09,18.20
2016,07,16,13,10,18.10
2016,07,16,13,11,18.10
2016,07,16,13,12,18.10
2016,07,16,13,13,18.10
2016,07,16,13,14,18.10
2016,07,16,13,15,18.10
2016,07,16,13,16,18.20
2016,07,16,13,17,18.20
2016,07,16,13,18,18.20
2016,07,16,13,19,18.20
2016,07,16,13,20,18.30
2016,07,16,13,21,18.30
2016,07,16,13,22,18.30
2016,07,16,13,23,18.40
2016,07,16,13,24,18.40
2016,07,16,13,25,18.50
2016,07,16,13,26,18.50
2016,07,16,13,27,18.60
2016,07,16,13,28,18.60
2016,07,16,13,29,18.60
2016,07,16,13,30,18.60
2016,07,16,13,31,18.70
2016,07,16,13,32,18.80
2016,07,16,13,33,18.80
2016,07,16,13,34,18.80
2016,07,16,13,35,18.80
2016,07,16,13,36,18.80
2016,07,16,13,37,18.80
2016,07,16,13,38,18.90
2016,07,16,13,39,18.90
2016,07,16,13,40,18.80
2016,07,16,13,41,18.80
2016,07,16,13,42,18.80
2016,07,16,13,43,18.80
2016,07,16,13,44,18.70
2016,07,16,13,45,18.80
2016,07,16,13,46,18.80
2016,07,16,13,47,18.80
2016,07,16,13,48,18.80
2016,07,16,13,49,18.80
2016,07,16,13,50,18.80
2016,07,16,13,51,18.80
2016,07,16,13,52,18.80
2016,07,16,13,53,18.80
2016,07,16,13,54,18.90
2016,07,16,13,55,18.90
2016,07,16,13,56,18.80
2016,07,16,13,57,18.90
2016,07,16,13,58,19.00
2016,07,16,13,59,19.10
2016,07,16,14,00,19.10
2016,07,16,14,01,19.10
2016,07,16,14,02,19.10
2016,07,16,14,03,19.00
2016,07,16,14,04,19.00
2016,07,16,14,05,18.90
2016,07,16,14,06,18.90
2016,07,16,14,07,18.90
2016,07,16,14,08,19.00
2016,07,16,14,09,19.10
2016,07,16,14,10,19.20
2016,07,16,14,11,19.20
2016,07,16,14,12,19.20
2016,07,16,14,13,19.30
2016,07,16,14,14,19.30
2016,07,16,14,15,19.30
2016,07,16,14,16,19.30
2016,07,16,14,17,19.40
2016,07,16,14,18,19.40
2016,07,16,14,19,19.50
2016,07,16,14,20,19.60
2016,07,16,14,21,19.60
2016,07,16,14,22,19.60
2016,07,16,14,23,19.50
2016,07,16,14,24,19.50
2016,07,16,14,25,19.50
2016,07,16,14,26,19.50
2016,07,16,14,27,19.50
2016,07,16,14,28,19.40
2016,07,16,14,29,19.40
2016,07,16,14,30,19.40
2016,07,16,14,31,19.50
2016,07,16,14,32,19.50
2016,07,16,14,33,19.50
2016,07,16,14,34,19.50
2016,07,16,14,35,19.50
2016,07,16,14,36,19.50
2016,07,16,14,37,19.50
2016,07,16,14,38,19.50
2016,07,16,14,39,19.50
2016,07,16,14,40,19.60
2016,07,16,14,41,19.60
2016,07,16,14,42,19.70
2016,07,16,14,43,19.70
2016,07,16,14,44,19.80
2016,07,16,14,45,19.80
2016,07,16,14,46,19.70
2016,07,16,14,47,19.70
2016,07,16,14,48,19.80
2016,07,16,14,49,19.80
2016,07,16,14,50,19.80
2016,07,16,14,51,19.80
2016,07,16,14,52,19.80
2016,07,16,14,53,19.80
2016,07,16,14,54,19.80
2016,07,16,14,55,19.90
2016,07,16,14,56,19.90
2016,07,16,14,57,20.00
2016,07,16,14,58,20.10
2016,07,16,14,59,20.10
2016,07,16,15,00,20.10
2016,07,16,15,01,20.10
2016,07,16,15,02,20.00
2016,07,16,15,03,20.00
2016,07,16,15,04,19.90
2016,07,16,15,05,19.90
2016,07,16,15,06,20.00
2016,07,16,15,07,20.00
2016,07,16,15,08,20.10
2016,07,16,15,09,20.20
2016,07,16,15,10,20.30
2016,07,16,15,11,20.30
2016,07,16,15,12,20.30
2016,07,16,15,13,20.20
2016,07,16,15,14,20.20
2016,07,16,15,15,20.20
2016,07,16,15,16,20.20
2016,07,16,15,17,20.20
2016,07,16,15,18,20.20
2016,07,16,15,19,20.20
2016,07,16,15,20,20.20
2016,07,16,15,21,20.20
2016,07,16,15,22,20.20
2016,07,16,15,23,20.20
2016,07,16,15,24,20.20
2016,07,16,15,25,20.10
2016,07,16,15,26,20.00
2016,07,16,15,27,19.90
2016,07,16,15,28,19.90
2016,07,16,15,29,19.90
2016,07,16,15,30,20.00
2016,07,16,15,31,20.00
2016,07,16,15,32,20.10
2016,07,16,15,33,20.10
2016,07,16,15,34,20.10
2016,07,16,15,35,20.10
2016,07,16,15,36,20.10
2016,07,16,15,37,20.10
2016,07,16,15,38,20.10
2016,07,16,15,39,20.20
2016,07,16,15,40,20.30
2016,07,16,15,41,20.40
2016,07,16,15,42,20.50
2016,07,16,15,43,20.50
2016,07,16,15,44,20.60
2016,07,16,15,45,20.40
2016,07,16,15,46,20.20
2016,07,16,15,47,20.00
2016,07,16,15,48,19.70
2016,07,16,15,49,19.60
2016,07,16,15,50,19.40
2016,07,16,15,51,19.30
2016,07,16,15,52,19.20
2016,07,16,15,53,19.10
2016,07,16,15,54,19.10
2016,07,16,15,55,19.10
2016,07,16,15,56,19.10
2016,07,16,15,57,19.10
2016,07,16,15,58,19.10
2016,07,16,15,59,19.10
2016,07,16,16,00,19.10
2016,07,16,16,01,19.00
2016,07,16,16,02,18.90
2016,07,16,16,03,18.90
2016,07,16,16,04,18.80
2016,07,16,16,05,18.80
2016,07,16,16,06,18.80
2016,07,16,16,07,18.80
2016,07,16,16,08,18.80
2016,07,16,16,09,18.90
2016,07,16,16,10,18.90
2016,07,16,16,11,18.80
2016,07,16,16,12,18.80
2016,07,16,16,13,18.70
2016,07,16,16,14,18.70
2016,07,16,16,15,18.70
2016,07,16,16,16,18.70
2016,07,16,16,17,18.80
2016,07,16,16,18,18.80
2016,07,16,16,19,18.80
2016,07,16,16,20,18.80
2016,07,16,16,21,18.90
2016,07,16,16,22,18.90
2016,07,16,16,23,18.90
2016,07,16,16,24,19.00
2016,07,16,16,25,19.00
2016,07,16,16,26,19.00
2016,07,16,16,27,19.10
2016,07,16,16,28,19.10
2016,07,16,16,29,19.00
2016,07,16,16,30,19.00
2016,07,16,16,31,19.10
2016,07,16,16,32,19.10
2016,07,16,16,33,19.10
2016,07,16,16,34,19.10
2016,07,16,16,35,19.10
2016,07,16,16,36,19.10
2016,07,16,16,37,19.10
2016,07,16,16,38,19.10
2016,07,16,16,39,19.10
2016,07,16,16,40,19.20
2016,07,16,16,41,19.20
2016,07,16,16,42,19.20
2016,07,16,16,43,19.30
2016,07,16,16,44,19.30
2016,07,16,16,45,19.30
2016,07,16,16,46,19.40
2016,07,16,16,47,19.40
2016,07,16,16,48,19.50
2016,07,16,16,49,19.50
2016,07,16,16,50,19.50
2016,07,16,16,51,19.50
2016,07,16,16,52,19.50
2016,07,16,16,53,19.30
2016,07,16,16,54,19.30
2016,07,16,16,55,19.30
2016,07,16,16,56,19.30
2016,07,16,16,57,19.30
2016,07,16,16,58,19.30
2016,07,16,16,59,19.30
2016,07,16,17,00,19.30
2016,07,16,17,01,19.30
2016,07,16,17,02,19.30
2016,07,16,17,03,19.30
2016,07,16,17,04,19.20
2016,07,16,17,05,19.20
2016,07,16,17,06,19.10
2016,07,16,17,07,19.10
2016,07,16,17,08,19.10
2016,07,16,17,09,19.20
2016,07,16,17,10,19.10
2016,07,16,17,11,19.10
2016,07,16,17,12,19.00
2016,07,16,17,13,19.00
2016,07,16,17,14,19.00
2016,07,16,17,15,19.00
2016,07,16,17,16,19.00
2016,07,16,17,17,18.90
2016,07,16,17,18,18.90
2016,07,16,17,19,19.00